Time,TemperatureF,DewpointF,PressureIn,WindDirection,WindDirectionDegrees,WindSpeedMPH,WindSpeedGustMPH,Humidity,HourlyPrecipIn,Conditions,Clouds,dailyrainin,SolarRadiationWatts/m^2,SoftwareType,DateUTC
2013-01-19 00:02:00,34.0,33.0,-100.00,ENE,77,1.0,2.0,95,0.00,,,0.00,0.000000,,2013-01-19 08:02:00,
2013-01-19 00:12:00,35.0,33.0,-100.00,NE,36,1.0,3.0,94,0.00,,,0.00,0.000000,,2013-01-19 08:12:00,
2013-01-19 00:33:00,35.0,33.0,-100.00,NE,36,1.0,3.0,94,0.00,,,0.00,0.000000,,2013-01-19 08:33:00,
2013-01-19 00:43:00,35.0,33.0,-100.00,NE,36,1.0,3.0,94,0.00,,,0.00,0.000000,,2013-01-19 08:43:00,
2013-01-19 00:53:00,35.0,33.0,-100.00,NE,36,1.0,3.0,94,0.00,,,0.00,0.000000,,2013-01-19 08:53:00,
2013-01-19 01:02:00,35.0,33.0,-100.00,NE,36,1.0,3.0,94,0.00,,,0.00,0.000000,,2013-01-19 09:02:00,
2013-01-19 01:12:00,37.0,33.0,-100.00,NE,39,0.0,3.0,86,0.00,,,0.00,0.000000,,2013-01-19 09:12:00,
2013-01-19 01:33:00,37.0,33.0,-100.00,NE,39,0.0,3.0,86,0.00,,,0.00,0.000000,,2013-01-19 09:33:00,
2013-01-19 01:43:00,37.0,33.0,-100.00,NE,39,0.0,3.0,86,0.00,,,0.00,0.000000,,2013-01-19 09:43:00,
2013-01-19 01:52:00,37.0,33.0,-100.00,NE,39,0.0,3.0,86,0.00,,,0.00,0.000000,,2013-01-19 09:52:00,
2013-01-19 02:02:00,37.0,33.0,-100.00,NE,39,0.0,3.0,86,0.00,,,0.00,0.000000,,2013-01-19 10:02:00,
2013-01-19 02:12:00,35.0,32.0,-100.00,NNE,33,0.0,0.0,87,0.00,,,0.00,0.000000,,2013-01-19 10:12:00,
2013-01-19 02:33:00,35.0,32.0,-100.00,NNE,33,0.0,0.0,87,0.00,,,0.00,0.000000,,2013-01-19 10:33:00,
2013-01-19 02:43:00,35.0,32.0,-100.00,NNE,33,0.0,0.0,87,0.00,,,0.00,0.000000,,2013-01-19 10:43:00,
2013-01-19 02:53:00,35.0,32.0,-100.00,NNE,33,0.0,0.0,87,0.00,,,0.00,0.000000,,2013-01-19 10:53:00,
2013-01-19 03:02:00,35.0,32.0,-100.00,NNE,33,0.0,0.0,87,0.00,,,0.00,0.000000,,2013-01-19 11:02:00,
2013-01-19 05:34:00,36.0,26.0,-100.00,NE,40,1.0,2.0,68,-99.99,,,0.00,0.000000,,2013-01-19 13:34:00,
2013-01-19 06:34:00,36.0,29.0,-100.00,NNE,33,1.0,2.0,74,-99.99,,,-99.99,0.000000,,2013-01-19 14:34:00,
2013-01-19 07:12:00,31.0,28.0,-100.00,ENE,75,2.0,2.0,87,-99.99,,,0.00,0.000000,,2013-01-19 15:12:00,
2013-01-19 07:43:00,31.0,28.0,-100.00,ENE,75,2.0,2.0,87,-99.99,,,0.00,0.000000,,2013-01-19 15:43:00,
2013-01-19 07:53:00,31.0,28.0,-100.00,ENE,75,2.0,2.0,87,-99.99,,,0.00,0.000000,,2013-01-19 15:53:00,
2013-01-19 08:02:00,31.0,28.0,-100.00,ENE,75,2.0,2.0,87,-99.99,,,0.00,0.000000,,2013-01-19 16:02:00,
2013-01-19 08:33:00,36.0,29.0,-100.00,ENE,58,0.0,2.0,76,0.00,,,0.00,2.000000,,2013-01-19 16:33:00,
2013-01-19 09:37:00,36.0,27.0,-100.00,ENE,74,1.0,2.0,69,-99.99,,,-99.99,19.000000,,2013-01-19 17:37:00,
2013-01-19 11:49:00,47.0,33.0,-100.00,ESE,118,2.0,3.0,57,-99.99,,,0.00,450.000000,,2013-01-19 19:49:00,
2013-01-19 11:55:00,47.0,33.0,-100.00,ESE,118,2.0,3.0,57,-99.99,,,0.00,450.000000,,2013-01-19 19:55:00,
2013-01-19 12:39:00,48.0,28.0,-100.00,SE,137,2.0,4.0,46,-99.99,,,0.00,288.000000,,2013-01-19 20:39:00,
2013-01-19 13:53:00,50.0,33.0,-100.00,SSE,166,1.0,5.0,51,-99.99,,,-99.99,55.000000,,2013-01-19 21:53:00,
2013-01-19 13:59:00,50.0,33.0,-100.00,SSE,166,1.0,5.0,51,-99.99,,,-99.99,55.000000,,2013-01-19 21:59:00,
2013-01-19 14:48:00,56.0,33.0,-100.00,SW,234,0.0,4.0,41,-99.99,,,0.00,432.000000,,2013-01-19 22:48:00,
2013-01-19 14:57:00,56.0,33.0,-100.00,SW,234,0.0,4.0,41,-99.99,,,0.00,432.000000,,2013-01-19 22:57:00,
2013-01-19 15:35:00,52.0,34.0,-100.00,ENE,71,2.0,3.0,50,-99.99,,,0.00,48.000000,,2013-01-19 23:35:00,
2013-01-19 16:37:00,50.0,33.0,-100.00,NE,54,1.0,3.0,52,0.00,,,0.00,25.000000,,2013-01-20 00:37:00,
2013-01-19 16:47:00,50.0,33.0,-100.00,NE,54,1.0,3.0,52,0.00,,,0.00,25.000000,,2013-01-20 00:47:00,
2013-01-19 16:55:00,50.0,33.0,-100.00,NE,54,1.0,3.0,52,0.00,,,0.00,25.000000,,2013-01-20 00:55:00,
2013-01-19 18:38:00,47.0,26.0,-100.00,NNE,29,2.0,6.0,44,-99.99,,,0.00,0.000000,,2013-01-20 02:38:00,
2013-01-19 19:39:00,42.0,29.0,-100.00,NNW,338,0.0,2.0,60,-99.99,,,0.00,0.000000,,2013-01-20 03:39:00,
2013-01-19 20:38:00,39.0,26.0,-100.00,NNE,27,1.0,2.0,60,-99.99,,,0.00,0.000000,,2013-01-20 04:38:00,
2013-01-19 21:33:00,39.0,28.0,-100.00,ENE,76,1.0,3.0,64,-99.99,,,0.00,0.000000,,2013-01-20 05:33:00,
2013-01-19 22:33:00,36.0,29.0,-100.00,ENE,70,1.0,3.0,77,-99.99,,,0.00,0.000000,,2013-01-20 06:33:00,
2013-01-19 22:43:00,36.0,29.0,-100.00,ENE,70,1.0,3.0,77,-99.99,,,0.00,0.000000,,2013-01-20 06:43:00,
2013-01-19 22:53:00,36.0,29.0,-100.00,ENE,70,1.0,3.0,77,-99.99,,,0.00,0.000000,,2013-01-20 06:53:00,
2013-01-19 23:02:00,36.0,29.0,-100.00,ENE,70,1.0,3.0,77,-99.99,,,0.00,0.000000,,2013-01-20 07:02:00,
2013-01-19 23:11:00,36.0,29.0,-100.00,ENE,70,1.0,3.0,77,-99.99,,,0.00,0.000000,,2013-01-20 07:11:00,
2013-01-19 23:12:00,35.0,29.0,-100.00,ENE,66,2.0,3.0,80,0.00,,,0.00,0.000000,,2013-01-20 07:12:00,
2013-01-19 23:32:00,35.0,29.0,-100.00,ENE,66,2.0,3.0,80,0.00,,,0.00,0.000000,,2013-01-20 07:32:00,
2013-01-19 23:42:00,35.0,29.0,-100.00,ENE,66,2.0,3.0,80,0.00,,,0.00,0.000000,,2013-01-20 07:42:00,
2013-01-19 23:52:00,35.0,29.0,-100.00,ENE,66,2.0,3.0,80,0.00,,,0.00,0.000000,,2013-01-20 07:52:00,